03:58
Airports
History
Links
Donate
Help keep this website running!
PayPal
Bitcoin
This page is community maintained. The information is intended for PC simulator navigation or reference.
Always use approved charts for navigation.
LIDM
Mantova
Mantova (LIDM)
Mantova, Lombardia, Italy (46100)
4
Lat/Lng:45° 8' 7" N / 10° 47' 41" E
45.135278 / 10.794722
Elevation:82'ft / 25mMSL
ID / ICAO:LIDM
Runways:1
Longest:(04-22) 869.0m / 2,851ft Grass
Distance To
Airport ID:
Nearby VORs <50NM
Nearby NDBs
Nearby WeatherUpdated 08-17-17 03:50 GMT
Nearby weather at LIPX, VILLAFRANCA located 18.7 nautical miles from LIDM
Altimeter: 30.06
Visibility: 6.2 statute miles
Wind: 5 knots (320°)
Temp: 21°c 70°f
Humidity: 73.1%

METAR: LIPX 170350Z 32005KT CAVOK 21/16 Q1018

(Powered by phpweather)
Runway 04 / 22
Dimensions:869 x 50m 2851' x 164'ft
Surface:Grass
Runway 04 [A]Runway 22 [B]
Heading:034°TH 214°TH
Lat:
Lng:
45° 7' 55.57"N
10° 47' 29.65"E
45° 8' 18.43"N
10° 47' 52.34"E
User Notes and Comments
Google Map
Nearby Airports
(C) VILLAFRANCA 18.7 NM
LIPX (WX) NNE 14°
(U) Carpi Budrione 21.1 NM
LIDU S 169°
(U) VERONA BOSCOMANTICO 24.1 NM
LIPN NNE 15°
4 Legnago 24.3 NM
LIDL E 90°
(C) Montichiari 30.3 NM
LIPO NW 311°
(U) REGGIO EMILIA 30.9 NM
LIDE S 191°
(C) PARMA 32.3 NM
LIMP SW 228°
VFR Chart
Flight Planning at SkyVector.com